Weather History for KOLF - November, 2012

Change the Weather History Date:

Tuesday, November 6, 2012

  Actual Average Record
Temperature  
Mean Temperature 40 °F -  
Max Temperature 52 °F 46 °F 73 °F (2010)
Min Temperature 27 °F 20 °F 0 °F (2003)
Degree Days  
Heating Degree Days 25    
Cooling Degree Days 0    
Moisture  
Dew Point 28 °F    
Average Humidity 71    
Maximum Humidity 89    
Minimum Humidity 38    
Precipitation  
Precipitation 0.00 in 0.02 in 0.03 in (2000)
Month to date precipitation 0.19 0.12  
Year to date precipitation 10.06 11.61  
Sea Level Pressure  
Sea Level Pressure 30.17 in    
Wind  
Wind Speed 9 mph (WSW)    
Max Wind Speed 13 mph    
Max Gust Speed -    
Visibility 10 miles    
Events      
T = Trace of Precipitation, MM = Missing Value Source: NWS Daily Summary

Daily Weather History Graph

Daily Weather History Graph

Search for Another Location

Airport or City:

Trip Planner

Search our weather history database for the weather conditions in past years. The results will help you decide how hot, cold, wet, or windy it might be!

Date:

Astronomy

Nov. 06, 2012 Rise Set
Actual Time 6:56 AM MST 4:35 PM MST
Civil Twilight 6:22 AM MST 5:08 PM MST
Nautical Twilight 5:45 AM MST 5:45 PM MST
Astronomical Twilight 5:09 AM MST 6:21 PM MST
Moon 11:23 PM MST (11/6) 12:45 PM MST (11/6)
Length of Visible Light 10h 45m
Length of Day
9h 39m
Waning Gibbous, 52% of the Moon is Illuminated
Nov 6
Waning Gibbous
Nov 6
Last Quarter
Nov 13
New
Nov 20
First Quarter
Nov 28
Full

Hourly Weather History & Observations

Time (MST) Temp. Windchill Dew Point Humidity Pressure Visibility Wind Dir Wind Speed Gust Speed Precip Events Conditions
12:53 AM 35.1 °F 27.4 °F 30.0 °F 82% 30.16 in 10.0 mi West 10.4 mph - N/A   Clear
1:53 AM 34.0 °F 25.0 °F 28.9 °F 82% 30.17 in 10.0 mi WSW 12.7 mph - N/A   Clear
2:53 AM 32.0 °F 23.6 °F 28.0 °F 85% 30.19 in 10.0 mi WSW 10.4 mph - N/A   Clear
3:53 AM 30.9 °F 24.3 °F 27.0 °F 85% 30.21 in 10.0 mi WSW 6.9 mph - N/A   Clear
4:53 AM 30.0 °F 22.4 °F 27.0 °F 88% 30.22 in 10.0 mi WSW 8.1 mph - N/A   Clear
5:53 AM 28.9 °F 19.2 °F 26.1 °F 89% 30.24 in 10.0 mi WSW 11.5 mph - N/A   Clear
6:53 AM 28.0 °F 19.3 °F 25.0 °F 88% 30.25 in 10.0 mi WSW 9.2 mph - N/A   Clear
7:53 AM 28.9 °F 20.4 °F 26.1 °F 89% 30.26 in 10.0 mi WSW 9.2 mph - N/A   Clear
8:53 AM 34.0 °F 26.6 °F 28.0 °F 79% 30.25 in 10.0 mi WSW 9.2 mph - N/A   Clear
9:53 AM 39.9 °F 33.4 °F 30.0 °F 68% 30.25 in 10.0 mi West 10.4 mph - N/A   Clear
10:53 AM 45.0 °F 39.3 °F 30.9 °F 58% 30.23 in 10.0 mi WSW 11.5 mph - N/A   Clear
11:53 AM 48.0 °F - 30.0 °F 50% 30.21 in 10.0 mi WSW 12.7 mph - N/A   Overcast
12:53 PM 50.0 °F - 27.0 °F 41% 30.19 in 10.0 mi West 11.5 mph - N/A   Mostly Cloudy
1:53 PM - - - N/A% 30.12 in - SW 10.4 mph - N/A   Unknown
2:53 PM 52.0 °F - 27.0 °F 38% 30.16 in 10.0 mi West 6.9 mph - N/A   Overcast
3:53 PM 48.9 °F - 26.1 °F 41% 30.15 in 10.0 mi SW 6.9 mph - N/A   Partly Cloudy
4:53 PM 44.1 °F 42.5 °F 26.1 °F 49% 30.14 in 10.0 mi WSW 3.5 mph - N/A   Scattered Clouds
5:53 PM 42.1 °F - 28.0 °F 58% 30.14 in 10.0 mi Calm Calm - N/A   Scattered Clouds
6:53 PM 36.0 °F 31.1 °F 28.0 °F 73% 30.13 in 10.0 mi NE 5.8 mph - N/A   Scattered Clouds
7:53 PM 35.1 °F 29.3 °F 27.0 °F 72% 30.11 in 10.0 mi NE 6.9 mph - N/A   Clear
8:53 PM 33.1 °F 26.1 °F 27.0 °F 78% 30.08 in 10.0 mi ENE 8.1 mph - N/A   Clear
9:53 PM 32.0 °F 26.4 °F 27.0 °F 82% 30.06 in 10.0 mi East 5.8 mph - N/A   Clear
10:53 PM 32.0 °F 24.2 °F 27.0 °F 82% 30.04 in 10.0 mi ENE 9.2 mph - N/A   Clear
11:53 PM 33.1 °F 25.5 °F 27.0 °F 78% 30.00 in 10.0 mi NE 9.2 mph - N/A   Scattered Clouds